,,PressureMeas_1m,,PRMeasQMR101_1,,RHStat155_1m_1,,SRMeasQMS101R_1m,,TAStat155_1m_1,,GenWind_1,,GenWind_1,
2017-06-07, 00:00:06,VALID,918.547,VALID,0.0,VALID,94.416,VALID,-0.015,VALID,20.157,VALID,74.0,VALID,0.17,
2017-06-07, 00:01:06,VALID,918.521,VALID,0.0,VALID,94.199,VALID,-0.025,VALID,20.064,VALID,122.0,VALID,0.472,
2017-06-07, 00:02:06,VALID,918.505,VALID,0.0,VALID,94.704,VALID,-0.006,VALID,20.003,VALID,128.0,VALID,0.757,
2017-06-07, 00:03:06,VALID,918.471,VALID,0.0,VALID,94.908,VALID,-0.015,VALID,19.953,VALID,128.0,VALID,0.788,
2017-06-07, 00:04:06,VALID,918.447,VALID,0.0,VALID,94.655,VALID,-0.012,VALID,19.895,VALID,129.0,VALID,0.688,
2017-06-07, 00:05:06,VALID,918.427,VALID,0.0,VALID,94.977,VALID,-0.017,VALID,19.88,VALID,125.0,VALID,0.769,
2017-06-07, 00:06:06,VALID,918.403,VALID,0.0,VALID,95.36,VALID,-0.012,VALID,19.859,VALID,124.0,VALID,0.816,
2017-06-07, 00:07:06,VALID,918.375,VALID,0.0,VALID,95.365,VALID,-0.012,VALID,19.823,VALID,126.0,VALID,0.79,
2017-06-07, 00:08:06,VALID,918.347,VALID,0.0,VALID,95.279,VALID,0.023,VALID,19.794,VALID,125.0,VALID,0.819,
2017-06-07, 00:09:06,VALID,918.327,VALID,0.0,VALID,95.722,VALID,0.022,VALID,19.807,VALID,122.0,VALID,0.907,
2017-06-07, 00:10:06,VALID,918.291,VALID,0.0,VALID,96.077,VALID,0.022,VALID,19.831,VALID,123.0,VALID,0.916,
2017-06-07, 00:11:06,VALID,918.27,VALID,0.0,VALID,96.415,VALID,0.012,VALID,19.863,VALID,121.0,VALID,0.89,
2017-06-07, 00:12:06,VALID,918.245,VALID,0.0,VALID,96.319,VALID,0.024,VALID,19.856,VALID,120.0,VALID,0.899,
2017-06-07, 00:13:06,VALID,918.215,VALID,0.0,VALID,96.328,VALID,0.019,VALID,19.853,VALID,118.0,VALID,0.916,
2017-06-07, 00:14:06,VALID,918.198,VALID,0.0,VALID,96.176,VALID,0.027,VALID,19.829,VALID,120.0,VALID,0.825,
2017-06-07, 00:15:06,VALID,918.173,VALID,0.0,VALID,95.858,VALID,0.039,VALID,19.777,VALID,132.0,VALID,0.672,
2017-06-07, 00:16:06,VALID,918.167,VALID,0.0,VALID,96.083,VALID,0.044,VALID,19.762,VALID,146.0,VALID,0.639,
2017-06-07, 00:17:06,VALID,918.148,VALID,0.0,VALID,96.297,VALID,0.028,VALID,19.763,VALID,150.0,VALID,0.613,
2017-06-07, 00:18:06,VALID,918.14,VALID,0.0,VALID,96.635,VALID,0.032,VALID,19.768,VALID,153.0,VALID,0.587,
2017-06-07, 00:19:06,VALID,918.135,VALID,0.0,VALID,96.834,VALID,0.028,VALID,19.774,VALID,157.0,VALID,0.563,
2017-06-07, 00:20:06,VALID,918.132,VALID,0.0,VALID,97.169,VALID,0.034,VALID,19.799,VALID,157.0,VALID,0.636,
2017-06-07, 00:21:06,VALID,918.099,VALID,0.0,VALID,97.461,VALID,0.028,VALID,19.836,VALID,157.0,VALID,0.634,
2017-06-07, 00:22:06,VALID,918.108,VALID,0.0,VALID,97.358,VALID,0.031,VALID,19.793,VALID,157.0,VALID,0.664,
2017-06-07, 00:23:06,VALID,918.103,VALID,0.0,VALID,97.151,VALID,-0.012,VALID,19.695,VALID,157.0,VALID,0.548,
2017-06-07, 00:24:06,VALID,918.103,VALID,0.0,VALID,96.887,VALID,-0.024,VALID,19.6,VALID,158.0,VALID,0.475,
2017-06-07, 00:25:06,VALID,918.099,VALID,0.0,VALID,96.965,VALID,-0.015,VALID,19.559,VALID,157.0,VALID,0.56,
2017-06-07, 00:26:06,VALID,918.091,VALID,0.0,VALID,97.147,VALID,-0.023,VALID,19.55,VALID,157.0,VALID,0.58,
2017-06-07, 00:27:06,VALID,918.074,VALID,0.0,VALID,97.24,VALID,-0.019,VALID,19.53,VALID,156.0,VALID,0.42,
2017-06-07, 00:28:06,VALID,918.046,VALID,0.0,VALID,96.851,VALID,-0.02,VALID,19.428,VALID,140.0,VALID,0.383,
2017-06-07, 00:29:06,VALID,918.042,VALID,0.0,VALID,97.162,VALID,-0.03,VALID,19.464,VALID,127.0,VALID,0.408,
2017-06-07, 00:30:06,VALID,918.02,VALID,0.0,VALID,97.382,VALID,-0.03,VALID,19.494,VALID,113.0,VALID,0.279,
2017-06-07, 00:31:06,VALID,917.987,VALID,0.0,VALID,97.46,VALID,-0.041,VALID,19.542,VALID,124.0,VALID,0.579,
2017-06-07, 00:32:06,VALID,917.96,VALID,0.0,VALID,97.541,VALID,-0.017,VALID,19.585,VALID,132.0,VALID,0.448,
2017-06-07, 00:33:06,VALID,917.936,VALID,0.0,VALID,97.518,VALID,-0.021,VALID,19.613,VALID,132.0,VALID,0.611,
2017-06-07, 00:34:06,VALID,917.913,VALID,0.0,VALID,97.527,VALID,-0.031,VALID,19.632,VALID,141.0,VALID,0.66,
2017-06-07, 00:35:06,VALID,917.887,VALID,0.0,VALID,97.616,VALID,-0.025,VALID,19.676,VALID,147.0,VALID,0.707,
2017-06-07, 00:36:06,VALID,917.865,VALID,0.0,VALID,97.635,VALID,-0.008,VALID,19.713,VALID,147.0,VALID,0.682,
2017-06-07, 00:37:06,VALID,917.845,VALID,0.0,VALID,97.407,VALID,-0.025,VALID,19.687,VALID,144.0,VALID,0.494,
2017-06-07, 00:38:06,VALID,917.821,VALID,0.0,VALID,97.117,VALID,0.011,VALID,19.626,VALID,136.0,VALID,0.592,
2017-06-07, 00:39:06,VALID,917.814,VALID,0.0,VALID,97.02,VALID,0.023,VALID,19.6,VALID,130.0,VALID,0.632,
2017-06-07, 00:40:06,VALID,917.81,VALID,0.0,VALID,96.919,VALID,0.035,VALID,19.562,VALID,123.0,VALID,0.653,
2017-06-07, 00:41:06,VALID,917.806,VALID,0.0,VALID,96.575,VALID,0.047,VALID,19.501,VALID,110.0,VALID,0.603,
2017-06-07, 00:42:06,VALID,917.818,VALID,0.0,VALID,96.922,VALID,0.037,VALID,19.534,VALID,109.0,VALID,0.531,
2017-06-07, 00:43:06,VALID,917.811,VALID,0.0,VALID,97.142,VALID,0.023,VALID,19.587,VALID,107.0,VALID,0.495,
2017-06-07, 00:44:06,VALID,917.804,VALID,0.0,VALID,97.233,VALID,0.038,VALID,19.624,VALID,108.0,VALID,0.486,
2017-06-07, 00:45:06,VALID,917.787,VALID,0.0,VALID,97.173,VALID,0.048,VALID,19.647,VALID,107.0,VALID,0.579,
2017-06-07, 00:46:06,VALID,917.779,VALID,0.0,VALID,97.071,VALID,0.042,VALID,19.645,VALID,115.0,VALID,0.684,
2017-06-07, 00:47:06,VALID,917.755,VALID,0.0,VALID,97.035,VALID,0.056,VALID,19.652,VALID,125.0,VALID,0.717,
2017-06-07, 00:48:06,VALID,917.765,VALID,0.0,VALID,96.833,VALID,0.047,VALID,19.611,VALID,135.0,VALID,0.736,
2017-06-07, 00:49:06,VALID,917.757,VALID,0.0,VALID,96.353,VALID,0.044,VALID,19.49,VALID,139.0,VALID,0.798,
2017-06-07, 00:50:06,VALID,917.747,VALID,0.0,VALID,96.16,VALID,0.051,VALID,19.378,VALID,143.0,VALID,0.898,
2017-06-07, 00:51:06,VALID,917.745,VALID,0.0,VALID,96.843,VALID,0.038,VALID,19.417,VALID,152.0,VALID,1.111,
2017-06-07, 00:52:06,VALID,917.745,VALID,0.0,VALID,97.672,VALID,0.045,VALID,19.544,VALID,152.0,VALID,1.138,
2017-06-07, 00:53:06,VALID,917.73,VALID,0.0,VALID,97.761,VALID,0.001,VALID,19.547,VALID,152.0,VALID,1.196,
2017-06-07, 00:54:06,VALID,917.714,VALID,0.0,VALID,97.794,VALID,-0.009,VALID,19.526,VALID,157.0,VALID,1.108,
2017-06-07, 00:55:06,VALID,917.712,VALID,0.0,VALID,97.797,VALID,-0.006,VALID,19.499,VALID,154.0,VALID,1.072,
2017-06-07, 00:56:06,VALID,917.698,VALID,0.0,VALID,97.885,VALID,-0.015,VALID,19.479,VALID,158.0,VALID,0.779,
2017-06-07, 00:57:06,VALID,917.69,VALID,0.0,VALID,97.862,VALID,-0.009,VALID,19.437,VALID,158.0,VALID,0.533,
2017-06-07, 00:58:06,VALID,917.667,VALID,0.0,VALID,97.811,VALID,-0.002,VALID,19.376,VALID,152.0,VALID,0.695,
2017-06-07, 00:59:06,VALID,917.655,VALID,0.0,VALID,97.856,VALID,-0.017,VALID,19.343,VALID,156.0,VALID,0.797,
2017-06-07, 01:00:06,VALID,917.658,VALID,0.0,VALID,97.805,VALID,-0.005,VALID,19.29,VALID,153.0,VALID,0.719,
2017-06-07, 01:01:06,VALID,917.648,VALID,0.0,VALID,97.781,VALID,-0.003,VALID,19.221,VALID,148.0,VALID,0.862,
2017-06-07, 01:02:06,VALID,917.629,VALID,0.0,VALID,97.613,VALID,-0.011,VALID,19.119,VALID,151.0,VALID,0.736,
2017-06-07, 01:03:06,VALID,917.616,VALID,0.0,VALID,97.689,VALID,0.006,VALID,19.092,VALID,136.0,VALID,0.796,
2017-06-07, 01:04:06,VALID,917.595,VALID,0.0,VALID,97.802,VALID,-0.007,VALID,19.072,VALID,129.0,VALID,1.207,
2017-06-07, 01:05:06,VALID,917.561,VALID,0.0,VALID,97.925,VALID,-0.0,VALID,19.072,VALID,130.0,VALID,1.374,
2017-06-07, 01:06:06,VALID,917.534,VALID,0.0,VALID,97.977,VALID,-0.006,VALID,19.063,VALID,126.0,VALID,1.31,
2017-06-07, 01:07:06,VALID,917.511,VALID,0.0,VALID,98.087,VALID,-0.008,VALID,19.08,VALID,125.0,VALID,1.246,
2017-06-07, 01:08:06,VALID,917.495,VALID,0.0,VALID,98.159,VALID,-0.001,VALID,19.108,VALID,127.0,VALID,1.35,
2017-06-07, 01:09:06,VALID,917.479,VALID,0.0,VALID,98.385,VALID,-0.009,VALID,19.27,VALID,123.0,VALID,1.369,
2017-06-07, 01:10:06,VALID,917.454,VALID,0.0,VALID,98.379,VALID,-0.013,VALID,19.296,VALID,126.0,VALID,1.334,
2017-06-07, 01:11:06,VALID,917.438,VALID,0.0,VALID,98.354,VALID,0.002,VALID,19.284,VALID,125.0,VALID,1.345,
2017-06-07, 01:12:06,VALID,917.415,VALID,0.0,VALID,98.307,VALID,-0.006,VALID,19.282,VALID,128.0,VALID,1.236,
2017-06-07, 01:13:06,VALID,917.394,VALID,0.0,VALID,98.306,VALID,-0.013,VALID,19.292,VALID,137.0,VALID,1.066,
2017-06-07, 01:14:06,VALID,917.391,VALID,0.0,VALID,98.334,VALID,-0.008,VALID,19.324,VALID,131.0,VALID,1.109,
2017-06-07, 01:15:06,VALID,917.375,VALID,0.0,VALID,98.35,VALID,-0.004,VALID,19.344,VALID,127.0,VALID,1.434,
2017-06-07, 01:16:06,VALID,917.353,VALID,0.0,VALID,98.374,VALID,0.006,VALID,19.391,VALID,127.0,VALID,1.468,
2017-06-07, 01:17:06,VALID,917.339,VALID,0.0,VALID,98.37,VALID,-0.009,VALID,19.435,VALID,127.0,VALID,1.26,
2017-06-07, 01:18:06,VALID,917.325,VALID,0.0,VALID,98.322,VALID,-0.001,VALID,19.411,VALID,120.0,VALID,1.216,
2017-06-07, 01:19:06,VALID,917.309,VALID,0.0,VALID,98.238,VALID,0.013,VALID,19.378,VALID,113.0,VALID,1.159,
2017-06-07, 01:20:06,VALID,917.305,VALID,0.0,VALID,98.143,VALID,0.002,VALID,19.343,VALID,114.0,VALID,1.055,
2017-06-07, 01:21:06,VALID,917.307,VALID,0.0,VALID,98.163,VALID,0.001,VALID,19.37,VALID,119.0,VALID,0.916,
2017-06-07, 01:22:06,VALID,917.319,VALID,0.0,VALID,98.19,VALID,-0.016,VALID,19.391,VALID,134.0,VALID,0.7,
2017-06-07, 01:23:06,VALID,917.306,VALID,0.0,VALID,98.172,VALID,-0.006,VALID,19.394,VALID,143.0,VALID,0.843,
2017-06-07, 01:24:06,VALID,917.291,VALID,0.0,VALID,98.298,VALID,0.01,VALID,19.496,VALID,151.0,VALID,1.014,
2017-06-07, 01:25:06,VALID,917.292,VALID,0.0,VALID,98.35,VALID,-0.001,VALID,19.575,VALID,147.0,VALID,0.95,
2017-06-07, 01:26:06,VALID,917.289,VALID,0.0,VALID,98.281,VALID,-0.012,VALID,19.569,VALID,139.0,VALID,0.782,
2017-06-07, 01:27:06,VALID,917.293,VALID,0.0,VALID,98.21,VALID,0.004,VALID,19.555,VALID,132.0,VALID,0.568,
2017-06-07, 01:28:06,VALID,917.294,VALID,0.0,VALID,97.983,VALID,0.008,VALID,19.435,VALID,114.0,VALID,0.255,
2017-06-07, 01:29:06,VALID,917.31,VALID,0.0,VALID,97.701,VALID,0.007,VALID,19.32,VALID,91.0,VALID,0.374,
2017-06-07, 01:30:06,VALID,917.324,VALID,0.0,VALID,97.778,VALID,-0.003,VALID,19.312,VALID,82.0,VALID,0.319,
2017-06-07, 01:31:06,VALID,917.331,VALID,0.0,VALID,97.748,VALID,0.002,VALID,19.274,VALID,82.0,VALID,0.154,
2017-06-07, 01:32:06,VALID,917.317,VALID,0.0,VALID,97.797,VALID,0.0,VALID,19.277,VALID,82.0,VALID,0.067,
2017-06-07, 01:33:06,VALID,917.312,VALID,0.0,VALID,97.917,VALID,0.008,VALID,19.31,VALID,82.0,VALID,0.18,
2017-06-07, 01:34:06,VALID,917.304,VALID,0.0,VALID,97.93,VALID,-0.003,VALID,19.304,VALID,82.0,VALID,0.228,
2017-06-07, 01:35:06,VALID,917.31,VALID,0.0,VALID,97.839,VALID,-0.002,VALID,19.26,VALID,87.0,VALID,0.318,
2017-06-07, 01:36:06,VALID,917.331,VALID,0.0,VALID,97.829,VALID,-0.003,VALID,19.261,VALID,96.0,VALID,0.333,
2017-06-07, 01:37:06,VALID,917.335,VALID,0.0,VALID,97.796,VALID,-0.002,VALID,19.228,VALID,96.0,VALID,0.364,
2017-06-07, 01:38:06,VALID,917.343,VALID,0.0,VALID,97.793,VALID,-0.002,VALID,19.223,VALID,96.0,VALID,0.455,
2017-06-07, 01:39:06,VALID,917.34,VALID,0.0,VALID,97.912,VALID,0.008,VALID,19.237,VALID,93.0,VALID,0.677,
2017-06-07, 01:40:06,VALID,917.343,VALID,0.0,VALID,97.871,VALID,-0.007,VALID,19.215,VALID,92.0,VALID,0.789,
2017-06-07, 01:41:06,VALID,917.331,VALID,0.0,VALID,97.981,VALID,0.012,VALID,19.251,VALID,101.0,VALID,0.962,
2017-06-07, 01:42:06,VALID,917.317,VALID,0.0,VALID,97.988,VALID,0.007,VALID,19.278,VALID,109.0,VALID,1.116,
2017-06-07, 01:43:06,VALID,917.302,VALID,0.0,VALID,97.728,VALID,0.008,VALID,19.234,VALID,115.0,VALID,1.268,
2017-06-07, 01:44:06,VALID,917.293,VALID,0.0,VALID,97.411,VALID,0.004,VALID,19.222,VALID,122.0,VALID,1.221,
2017-06-07, 01:45:06,VALID,917.281,VALID,0.0,VALID,97.008,VALID,0.013,VALID,19.216,VALID,117.0,VALID,0.975,
2017-06-07, 01:46:06,VALID,917.266,VALID,0.0,VALID,96.632,VALID,-0.012,VALID,19.204,VALID,108.0,VALID,0.688,
2017-06-07, 01:47:06,VALID,917.283,VALID,0.0,VALID,96.725,VALID,-0.001,VALID,19.235,VALID,104.0,VALID,0.483,
2017-06-07, 01:48:06,VALID,917.266,VALID,0.0,VALID,96.985,VALID,-0.004,VALID,19.289,VALID,102.0,VALID,0.397,
2017-06-07, 01:49:06,VALID,917.252,VALID,0.0,VALID,97.128,VALID,0.003,VALID,19.339,VALID,102.0,VALID,0.448,
2017-06-07, 01:50:06,VALID,917.252,VALID,0.0,VALID,97.229,VALID,-0.008,VALID,19.369,VALID,102.0,VALID,0.413,
2017-06-07, 01:51:06,VALID,917.264,VALID,0.0,VALID,97.029,VALID,-0.0,VALID,19.34,VALID,102.0,VALID,0.39,
2017-06-07, 01:52:06,VALID,917.258,VALID,0.0,VALID,97.286,VALID,0.018,VALID,19.388,VALID,101.0,VALID,0.3,
2017-06-07, 01:53:06,VALID,917.262,VALID,0.0,VALID,97.449,VALID,-0.03,VALID,19.425,VALID,101.0,VALID,0.346,
2017-06-07, 01:54:06,VALID,917.257,VALID,0.0,VALID,97.501,VALID,-0.046,VALID,19.445,VALID,102.0,VALID,0.431,
2017-06-07, 01:55:06,VALID,917.237,VALID,0.0,VALID,97.581,VALID,-0.034,VALID,19.468,VALID,108.0,VALID,0.598,
2017-06-07, 01:56:06,VALID,917.235,VALID,0.0,VALID,97.531,VALID,-0.022,VALID,19.458,VALID,110.0,VALID,0.709,
2017-06-07, 01:57:06,VALID,917.214,VALID,0.0,VALID,97.363,VALID,-0.018,VALID,19.419,VALID,106.0,VALID,0.752,
2017-06-07, 01:58:06,VALID,917.211,VALID,0.0,VALID,97.26,VALID,-0.037,VALID,19.384,VALID,106.0,VALID,0.638,
2017-06-07, 01:59:06,VALID,917.193,VALID,0.0,VALID,96.734,VALID,-0.022,VALID,19.238,VALID,107.0,VALID,0.73,
2017-06-07, 02:00:06,VALID,917.185,VALID,0.0,VALID,96.571,VALID,-0.021,VALID,19.148,VALID,96.0,VALID,0.816,
2017-06-07, 02:01:06,VALID,917.172,VALID,0.0,VALID,97.292,VALID,-0.021,VALID,19.21,VALID,91.0,VALID,1.005,
2017-06-07, 02:02:06,VALID,917.157,VALID,0.0,VALID,97.627,VALID,-0.01,VALID,19.247,VALID,89.0,VALID,1.032,
2017-06-07, 02:03:06,VALID,917.164,VALID,0.0,VALID,97.588,VALID,-0.021,VALID,19.22,VALID,83.0,VALID,0.965,
2017-06-07, 02:04:06,VALID,917.169,VALID,0.0,VALID,97.76,VALID,-0.021,VALID,19.25,VALID,80.0,VALID,0.879,
2017-06-07, 02:05:06,VALID,917.179,VALID,0.0,VALID,97.716,VALID,-0.023,VALID,19.203,VALID,74.0,VALID,0.791,
2017-06-07, 02:06:06,VALID,917.18,VALID,0.0,VALID,97.519,VALID,-0.02,VALID,19.131,VALID,67.0,VALID,0.739,
2017-06-07, 02:07:06,VALID,917.191,VALID,0.0,VALID,97.759,VALID,-0.018,VALID,19.158,VALID,75.0,VALID,0.754,
2017-06-07, 02:08:06,VALID,917.192,VALID,0.0,VALID,97.863,VALID,-0.012,VALID,19.176,VALID,98.0,VALID,0.782,
2017-06-07, 02:09:06,VALID,917.197,VALID,0.0,VALID,97.793,VALID,-0.019,VALID,19.135,VALID,121.0,VALID,0.748,
2017-06-07, 02:10:06,VALID,917.2,VALID,0.0,VALID,97.81,VALID,-0.021,VALID,19.116,VALID,129.0,VALID,0.883,
2017-06-07, 02:11:06,VALID,917.184,VALID,0.0,VALID,97.842,VALID,-0.018,VALID,19.092,VALID,130.0,VALID,0.845,
2017-06-07, 02:12:06,VALID,917.167,VALID,0.0,VALID,97.799,VALID,-0.011,VALID,19.042,VALID,131.0,VALID,0.876,
2017-06-07, 02:13:06,VALID,917.167,VALID,0.0,VALID,97.832,VALID,-0.025,VALID,19.026,VALID,132.0,VALID,0.946,
2017-06-07, 02:14:06,VALID,917.15,VALID,0.0,VALID,97.962,VALID,-0.021,VALID,19.047,VALID,129.0,VALID,1.056,
2017-06-07, 02:15:06,VALID,917.137,VALID,0.0,VALID,98.071,VALID,-0.028,VALID,19.067,VALID,127.0,VALID,1.069,
2017-06-07, 02:16:06,VALID,917.122,VALID,0.0,VALID,98.051,VALID,-0.017,VALID,19.036,VALID,132.0,VALID,1.067,
2017-06-07, 02:17:06,VALID,917.116,VALID,0.0,VALID,98.07,VALID,-0.006,VALID,19.019,VALID,131.0,VALID,0.968,
2017-06-07, 02:18:06,VALID,917.118,VALID,0.0,VALID,98.116,VALID,-0.017,VALID,19.026,VALID,133.0,VALID,0.892,
2017-06-07, 02:19:06,VALID,917.122,VALID,0.0,VALID,98.111,VALID,-0.023,VALID,19.005,VALID,134.0,VALID,0.798,
2017-06-07, 02:20:06,VALID,917.139,VALID,0.0,VALID,98.104,VALID,-0.033,VALID,19.004,VALID,139.0,VALID,0.73,
2017-06-07, 02:21:06,VALID,917.135,VALID,0.0,VALID,98.176,VALID,-0.039,VALID,19.045,VALID,145.0,VALID,0.793,
2017-06-07, 02:22:06,VALID,917.149,VALID,0.0,VALID,98.223,VALID,-0.043,VALID,19.076,VALID,148.0,VALID,0.442,
2017-06-07, 02:23:06,VALID,917.15,VALID,0.0,VALID,98.189,VALID,0.019,VALID,19.043,VALID,144.0,VALID,0.187,
2017-06-07, 02:24:06,VALID,917.167,VALID,0.0,VALID,98.062,VALID,0.021,VALID,18.968,VALID,137.0,VALID,0.117,
2017-06-07, 02:25:06,VALID,917.173,VALID,0.0,VALID,97.982,VALID,0.016,VALID,18.91,VALID,134.0,VALID,0.276,
2017-06-07, 02:26:06,VALID,917.183,VALID,0.0,VALID,97.958,VALID,0.023,VALID,18.883,VALID,131.0,VALID,0.285,
2017-06-07, 02:27:06,VALID,917.206,VALID,0.0,VALID,97.993,VALID,0.018,VALID,18.879,VALID,124.0,VALID,0.329,
2017-06-07, 02:28:06,VALID,917.195,VALID,0.0,VALID,98.066,VALID,0.006,VALID,18.91,VALID,121.0,VALID,0.448,
2017-06-07, 02:29:06,VALID,917.202,VALID,0.0,VALID,98.192,VALID,0.011,VALID,18.978,VALID,120.0,VALID,0.477,
2017-06-07, 02:30:06,VALID,917.203,VALID,0.0,VALID,98.148,VALID,-0.001,VALID,18.941,VALID,117.0,VALID,0.391,
2017-06-07, 02:31:06,VALID,917.192,VALID,0.0,VALID,97.931,VALID,0.006,VALID,18.847,VALID,115.0,VALID,0.244,
2017-06-07, 02:32:06,VALID,917.186,VALID,0.0,VALID,97.984,VALID,0.009,VALID,18.874,VALID,115.0,VALID,0.185,
2017-06-07, 02:33:06,VALID,917.172,VALID,0.0,VALID,98.002,VALID,0.014,VALID,18.858,VALID,115.0,VALID,0.204,
2017-06-07, 02:34:06,VALID,917.149,VALID,0.0,VALID,97.887,VALID,0.011,VALID,18.805,VALID,119.0,VALID,0.404,
2017-06-07, 02:35:06,VALID,917.12,VALID,0.0,VALID,97.742,VALID,0.021,VALID,18.748,VALID,125.0,VALID,0.738,
2017-06-07, 02:36:06,VALID,917.104,VALID,0.0,VALID,97.773,VALID,0.016,VALID,18.727,VALID,121.0,VALID,0.769,
2017-06-07, 02:37:06,VALID,917.079,VALID,0.0,VALID,97.473,VALID,0.031,VALID,18.635,VALID,121.0,VALID,0.701,
2017-06-07, 02:38:06,VALID,917.051,VALID,0.0,VALID,97.776,VALID,0.002,VALID,18.759,VALID,132.0,VALID,0.739,
2017-06-07, 02:39:06,VALID,917.039,VALID,0.0,VALID,98.119,VALID,0.0,VALID,18.869,VALID,124.0,VALID,0.686,
2017-06-07, 02:40:06,VALID,917.024,VALID,0.0,VALID,97.958,VALID,0.001,VALID,18.83,VALID,120.0,VALID,0.76,
2017-06-07, 02:41:06,VALID,917.011,VALID,0.0,VALID,97.942,VALID,-0.002,VALID,18.876,VALID,127.0,VALID,0.727,
2017-06-07, 02:42:06,VALID,917.0,VALID,0.0,VALID,97.899,VALID,0.002,VALID,18.853,VALID,136.0,VALID,0.713,
2017-06-07, 02:43:06,VALID,916.983,VALID,0.0,VALID,97.674,VALID,0.018,VALID,18.795,VALID,140.0,VALID,0.759,
2017-06-07, 02:44:06,VALID,916.986,VALID,0.0,VALID,97.278,VALID,0.005,VALID,18.676,VALID,134.0,VALID,0.834,
2017-06-07, 02:45:06,VALID,916.99,VALID,0.0,VALID,97.342,VALID,-0.004,VALID,18.68,VALID,129.0,VALID,0.771,
2017-06-07, 02:46:06,VALID,916.994,VALID,0.0,VALID,97.641,VALID,-0.007,VALID,18.734,VALID,125.0,VALID,0.735,
2017-06-07, 02:47:06,VALID,916.987,VALID,0.0,VALID,97.537,VALID,-0.007,VALID,18.704,VALID,121.0,VALID,0.651,
2017-06-07, 02:48:06,VALID,916.974,VALID,0.0,VALID,97.511,VALID,-0.007,VALID,18.713,VALID,111.0,VALID,0.653,
2017-06-07, 02:49:06,VALID,916.959,VALID,0.0,VALID,97.581,VALID,-0.003,VALID,18.758,VALID,123.0,VALID,0.795,
2017-06-07, 02:50:06,VALID,916.934,VALID,0.0,VALID,97.696,VALID,-0.013,VALID,18.814,VALID,128.0,VALID,0.814,
2017-06-07, 02:51:06,VALID,916.912,VALID,0.0,VALID,97.444,VALID,-0.006,VALID,18.784,VALID,142.0,VALID,0.93,
2017-06-07, 02:52:06,VALID,916.887,VALID,0.0,VALID,97.657,VALID,-0.02,VALID,18.871,VALID,143.0,VALID,1.213,
2017-06-07, 02:53:06,VALID,916.868,VALID,0.0,VALID,97.912,VALID,0.041,VALID,18.957,VALID,139.0,VALID,1.216,
2017-06-07, 02:54:06,VALID,916.859,VALID,0.0,VALID,97.871,VALID,0.042,VALID,18.974,VALID,132.0,VALID,1.175,
2017-06-07, 02:55:06,VALID,916.871,VALID,0.0,VALID,97.669,VALID,0.05,VALID,18.956,VALID,127.0,VALID,1.085,
2017-06-07, 02:56:06,VALID,916.899,VALID,0.0,VALID,97.268,VALID,0.04,VALID,18.866,VALID,122.0,VALID,0.932,
2017-06-07, 02:57:06,VALID,916.921,VALID,0.0,VALID,97.127,VALID,0.039,VALID,18.826,VALID,118.0,VALID,0.713,
2017-06-07, 02:58:06,VALID,916.952,VALID,0.0,VALID,97.261,VALID,0.046,VALID,18.837,VALID,119.0,VALID,0.658,
2017-06-07, 02:59:06,VALID,916.992,VALID,0.0,VALID,97.392,VALID,0.062,VALID,18.868,VALID,125.0,VALID,0.522,
2017-06-07, 03:00:06,VALID,916.997,VALID,0.0,VALID,97.559,VALID,0.042,VALID,18.91,VALID,124.0,VALID,0.468,
2017-06-07, 03:01:06,VALID,916.99,VALID,0.0,VALID,97.602,VALID,0.042,VALID,18.924,VALID,122.0,VALID,0.444,
2017-06-07, 03:02:06,VALID,916.989,VALID,0.0,VALID,97.491,VALID,0.035,VALID,18.909,VALID,112.0,VALID,0.447,
2017-06-07, 03:03:06,VALID,916.964,VALID,0.0,VALID,97.398,VALID,0.032,VALID,18.898,VALID,109.0,VALID,0.582,
2017-06-07, 03:04:06,VALID,916.934,VALID,0.0,VALID,97.466,VALID,0.034,VALID,18.909,VALID,123.0,VALID,0.725,
2017-06-07, 03:05:06,VALID,916.89,VALID,0.0,VALID,97.652,VALID,0.043,VALID,18.952,VALID,125.0,VALID,1.038,
2017-06-07, 03:06:06,VALID,916.858,VALID,0.0,VALID,97.594,VALID,0.045,VALID,18.92,VALID,128.0,VALID,1.172,
2017-06-07, 03:07:06,VALID,916.841,VALID,0.0,VALID,97.538,VALID,0.054,VALID,18.893,VALID,128.0,VALID,1.231,
2017-06-07, 03:08:06,VALID,916.834,VALID,0.0,VALID,97.539,VALID,0.004,VALID,18.88,VALID,127.0,VALID,1.173,
2017-06-07, 03:09:06,VALID,916.84,VALID,0.0,VALID,97.514,VALID,-0.004,VALID,18.85,VALID,124.0,VALID,0.852,
2017-06-07, 03:10:06,VALID,916.835,VALID,0.0,VALID,97.492,VALID,0.01,VALID,18.832,VALID,131.0,VALID,0.845,
2017-06-07, 03:11:06,VALID,916.853,VALID,0.0,VALID,97.492,VALID,-0.0,VALID,18.825,VALID,127.0,VALID,0.803,
2017-06-07, 03:12:06,VALID,916.865,VALID,0.0,VALID,97.318,VALID,-0.004,VALID,18.787,VALID,128.0,VALID,0.752,
2017-06-07, 03:13:06,VALID,916.874,VALID,0.0,VALID,97.296,VALID,0.007,VALID,18.79,VALID,117.0,VALID,0.584,
2017-06-07, 03:14:06,VALID,916.895,VALID,0.0,VALID,97.265,VALID,-0.001,VALID,18.799,VALID,96.0,VALID,0.417,
2017-06-07, 03:15:06,VALID,916.924,VALID,0.0,VALID,97.28,VALID,-0.004,VALID,18.813,VALID,102.0,VALID,0.399,
2017-06-07, 03:16:06,VALID,916.94,VALID,0.0,VALID,97.243,VALID,-0.003,VALID,18.82,VALID,106.0,VALID,0.29,
2017-06-07, 03:17:06,VALID,916.944,VALID,0.0,VALID,97.334,VALID,-0.001,VALID,18.853,VALID,110.0,VALID,0.41,
2017-06-07, 03:18:06,VALID,916.94,VALID,0.0,VALID,97.433,VALID,0.019,VALID,18.884,VALID,114.0,VALID,0.498,
2017-06-07, 03:19:06,VALID,916.938,VALID,0.0,VALID,97.481,VALID,-0.0,VALID,18.915,VALID,122.0,VALID,0.574,
2017-06-07, 03:20:06,VALID,916.912,VALID,0.0,VALID,97.558,VALID,-0.011,VALID,18.944,VALID,123.0,VALID,0.707,
2017-06-07, 03:21:06,VALID,916.9,VALID,0.0,VALID,97.508,VALID,-0.014,VALID,18.938,VALID,123.0,VALID,0.869,
2017-06-07, 03:22:06,VALID,916.863,VALID,0.0,VALID,97.558,VALID,-0.003,VALID,18.967,VALID,121.0,VALID,0.963,
2017-06-07, 03:23:06,VALID,916.85,VALID,0.0,VALID,97.791,VALID,-0.004,VALID,19.042,VALID,113.0,VALID,0.998,
2017-06-07, 03:24:06,VALID,916.829,VALID,0.0,VALID,97.813,VALID,0.003,VALID,19.092,VALID,115.0,VALID,1.209,
2017-06-07, 03:25:06,VALID,916.81,VALID,0.0,VALID,97.682,VALID,0.002,VALID,19.064,VALID,113.0,VALID,1.284,
2017-06-07, 03:26:06,VALID,916.828,VALID,0.0,VALID,97.243,VALID,0.006,VALID,18.96,VALID,110.0,VALID,1.336,
2017-06-07, 03:27:06,VALID,916.843,VALID,0.0,VALID,97.311,VALID,-0.004,VALID,18.932,VALID,112.0,VALID,1.396,
2017-06-07, 03:28:06,VALID,916.862,VALID,0.0,VALID,97.573,VALID,0.004,VALID,18.931,VALID,119.0,VALID,1.215,
2017-06-07, 03:29:06,VALID,916.872,VALID,0.0,VALID,97.552,VALID,0.013,VALID,18.886,VALID,120.0,VALID,1.115,
2017-06-07, 03:30:06,VALID,916.866,VALID,0.0,VALID,97.717,VALID,0.005,VALID,18.901,VALID,116.0,VALID,1.237,
2017-06-07, 03:31:06,VALID,916.866,VALID,0.0,VALID,97.868,VALID,0.001,VALID,18.927,VALID,113.0,VALID,1.456,
2017-06-07, 03:32:06,VALID,916.854,VALID,0.0,VALID,97.871,VALID,0.006,VALID,18.894,VALID,114.0,VALID,1.394,
2017-06-07, 03:33:06,VALID,916.827,VALID,0.0,VALID,97.362,VALID,0.013,VALID,18.731,VALID,110.0,VALID,1.427,
2017-06-07, 03:34:06,VALID,916.815,VALID,0.0,VALID,97.577,VALID,0.016,VALID,18.736,VALID,115.0,VALID,1.72,
2017-06-07, 03:35:06,VALID,916.809,VALID,0.0,VALID,97.848,VALID,-0.008,VALID,18.789,VALID,118.0,VALID,1.559,
2017-06-07, 03:36:06,VALID,916.804,VALID,0.0,VALID,98.077,VALID,-0.013,VALID,18.873,VALID,122.0,VALID,1.429,
2017-06-07, 03:37:06,VALID,916.805,VALID,0.0,VALID,98.082,VALID,0.004,VALID,18.904,VALID,123.0,VALID,1.237,
2017-06-07, 03:38:06,VALID,916.792,VALID,0.0,VALID,98.034,VALID,-0.028,VALID,18.897,VALID,125.0,VALID,1.205,